Year,Month,Day,Hour,Minute,Value (Times are PST for temperature in C)
2018,07,17,00,00,17.80
2018,07,17,00,01,17.80
2018,07,17,00,02,17.80
2018,07,17,00,03,17.80
2018,07,17,00,04,17.90
2018,07,17,00,05,17.90
2018,07,17,00,06,17.90
2018,07,17,00,07,17.90
2018,07,17,00,08,18.00
2018,07,17,00,09,18.00
2018,07,17,00,10,18.00
2018,07,17,00,11,18.00
2018,07,17,00,12,18.00
2018,07,17,00,13,18.00
2018,07,17,00,14,18.10
2018,07,17,00,15,18.10
2018,07,17,00,16,18.10
2018,07,17,00,17,18.10
2018,07,17,00,18,18.10
2018,07,17,00,19,18.10
2018,07,17,00,20,18.10
2018,07,17,00,21,18.10
2018,07,17,00,22,18.10
2018,07,17,00,23,18.10
2018,07,17,00,24,18.20
2018,07,17,00,25,18.20
2018,07,17,00,26,18.20
2018,07,17,00,27,18.20
2018,07,17,00,28,18.20
2018,07,17,00,29,18.20
2018,07,17,00,30,18.30
2018,07,17,00,31,18.30
2018,07,17,00,32,18.30
2018,07,17,00,33,18.30
2018,07,17,00,34,18.30
2018,07,17,00,35,18.30
2018,07,17,00,36,18.30
2018,07,17,00,37,18.30
2018,07,17,00,38,18.30
2018,07,17,00,39,18.30
2018,07,17,00,40,18.30
2018,07,17,00,41,18.30
2018,07,17,00,42,18.30
2018,07,17,00,43,18.30
2018,07,17,00,44,18.20
2018,07,17,00,45,18.20
2018,07,17,00,46,18.20
2018,07,17,00,47,18.20
2018,07,17,00,48,18.20
2018,07,17,00,49,18.20
2018,07,17,00,50,18.10
2018,07,17,00,51,18.10
2018,07,17,00,52,18.10
2018,07,17,00,53,18.10
2018,07,17,00,54,18.10
2018,07,17,00,55,18.10
2018,07,17,00,56,18.10
2018,07,17,00,57,18.00
2018,07,17,00,58,18.00
2018,07,17,00,59,18.00
2018,07,17,01,00,18.00
2018,07,17,01,01,18.00
2018,07,17,01,02,18.00
2018,07,17,01,03,18.00
2018,07,17,01,04,18.00
2018,07,17,01,05,18.00
2018,07,17,01,06,18.00
2018,07,17,01,07,18.00
2018,07,17,01,08,17.90
2018,07,17,01,09,17.90
2018,07,17,01,10,17.90
2018,07,17,01,11,17.90
2018,07,17,01,12,17.90
2018,07,17,01,13,17.90
2018,07,17,01,14,17.90
2018,07,17,01,15,17.90
2018,07,17,01,16,17.80
2018,07,17,01,17,17.80
2018,07,17,01,18,17.80
2018,07,17,01,19,17.70
2018,07,17,01,20,17.70
2018,07,17,01,21,17.70
2018,07,17,01,22,17.60
2018,07,17,01,23,17.60
2018,07,17,01,24,17.60
2018,07,17,01,25,17.50
2018,07,17,01,26,17.50
2018,07,17,01,27,17.50
2018,07,17,01,28,17.40
2018,07,17,01,29,17.40
2018,07,17,01,30,17.40
2018,07,17,01,31,17.30
2018,07,17,01,32,17.30
2018,07,17,01,33,17.30
2018,07,17,01,34,17.30
2018,07,17,01,35,17.30
2018,07,17,01,36,17.30
2018,07,17,01,37,17.30
2018,07,17,01,38,17.30
2018,07,17,01,39,17.30
2018,07,17,01,40,17.30
2018,07,17,01,41,17.30
2018,07,17,01,42,17.30
2018,07,17,01,43,17.30
2018,07,17,01,44,17.30
2018,07,17,01,45,17.30
2018,07,17,01,46,17.30
2018,07,17,01,47,17.30
2018,07,17,01,48,17.30
2018,07,17,01,49,17.30
2018,07,17,01,50,17.30
2018,07,17,01,51,17.40
2018,07,17,01,52,17.40
2018,07,17,01,53,17.40
2018,07,17,01,54,17.40
2018,07,17,01,55,17.40
2018,07,17,01,56,17.40
2018,07,17,01,57,17.40
2018,07,17,01,58,17.40
2018,07,17,01,59,17.40
2018,07,17,02,00,17.30
2018,07,17,02,01,17.30
2018,07,17,02,02,17.30
2018,07,17,02,03,17.30
2018,07,17,02,04,17.30
2018,07,17,02,05,17.30
2018,07,17,02,06,17.30
2018,07,17,02,07,17.30
2018,07,17,02,08,17.20
2018,07,17,02,09,17.20
2018,07,17,02,10,17.20
2018,07,17,02,11,17.20
2018,07,17,02,12,17.20
2018,07,17,02,13,17.20
2018,07,17,02,14,17.20
2018,07,17,02,15,17.20
2018,07,17,02,16,17.20
2018,07,17,02,17,17.10
2018,07,17,02,18,17.10
2018,07,17,02,19,17.10
2018,07,17,02,20,17.10
2018,07,17,02,21,17.00
2018,07,17,02,22,17.00
2018,07,17,02,23,17.00
2018,07,17,02,24,16.90
2018,07,17,02,25,16.90
2018,07,17,02,26,16.90
2018,07,17,02,27,16.90
2018,07,17,02,28,16.90
2018,07,17,02,29,16.90
2018,07,17,02,30,16.90
2018,07,17,02,31,16.90
2018,07,17,02,32,16.90
2018,07,17,02,33,17.00
2018,07,17,02,34,17.00
2018,07,17,02,35,17.00
2018,07,17,02,36,17.00
2018,07,17,02,37,17.00
2018,07,17,02,38,17.00
2018,07,17,02,39,17.00
2018,07,17,02,40,17.00
2018,07,17,02,41,17.00
2018,07,17,02,42,16.90
2018,07,17,02,43,16.90
2018,07,17,02,44,16.90
2018,07,17,02,45,16.90
2018,07,17,02,46,16.90
2018,07,17,02,47,16.80
2018,07,17,02,48,16.80
2018,07,17,02,49,16.80
2018,07,17,02,50,16.80
2018,07,17,02,51,16.80
2018,07,17,02,52,16.70
2018,07,17,02,53,16.60
2018,07,17,02,54,16.60
2018,07,17,02,55,16.50
2018,07,17,02,56,16.50
2018,07,17,02,57,16.40
2018,07,17,02,58,16.40
2018,07,17,02,59,16.40
2018,07,17,03,00,16.30
2018,07,17,03,01,16.30
2018,07,17,03,02,16.30
2018,07,17,03,03,16.20
2018,07,17,03,04,16.20
2018,07,17,03,05,16.20
2018,07,17,03,06,16.20
2018,07,17,03,07,16.10
2018,07,17,03,08,16.10
2018,07,17,03,09,16.10
2018,07,17,03,10,16.10
2018,07,17,03,11,16.10
2018,07,17,03,12,16.00
2018,07,17,03,13,16.00
2018,07,17,03,14,16.00
2018,07,17,03,15,16.00
2018,07,17,03,16,16.00
2018,07,17,03,17,16.00
2018,07,17,03,18,16.00
2018,07,17,03,19,16.00
2018,07,17,03,20,15.90
2018,07,17,03,21,15.90
2018,07,17,03,22,16.00
2018,07,17,03,23,16.00
2018,07,17,03,24,16.00
2018,07,17,03,25,16.00
2018,07,17,03,26,16.10
2018,07,17,03,27,16.10
2018,07,17,03,28,16.10
2018,07,17,03,29,16.20
2018,07,17,03,30,16.20
2018,07,17,03,31,16.20
2018,07,17,03,32,16.20
2018,07,17,03,33,16.20
2018,07,17,03,34,16.20
2018,07,17,03,35,16.20
2018,07,17,03,36,16.20
2018,07,17,03,37,16.20
2018,07,17,03,38,16.20
2018,07,17,03,39,16.20
2018,07,17,03,40,16.20
2018,07,17,03,41,16.20
2018,07,17,03,42,16.20
2018,07,17,03,43,16.20
2018,07,17,03,44,16.20
2018,07,17,03,45,16.20
2018,07,17,03,46,16.20
2018,07,17,03,47,16.20
2018,07,17,03,48,16.20
2018,07,17,03,49,16.10
2018,07,17,03,50,16.10
2018,07,17,03,51,16.10
2018,07,17,03,52,16.00
2018,07,17,03,53,16.00
2018,07,17,03,54,16.00
2018,07,17,03,55,15.90
2018,07,17,03,56,15.90
2018,07,17,03,57,15.90
2018,07,17,03,58,15.90
2018,07,17,03,59,16.00
2018,07,17,04,00,16.00
2018,07,17,04,01,16.10
2018,07,17,04,02,16.10
2018,07,17,04,03,16.20
2018,07,17,04,04,16.20
2018,07,17,04,05,16.20
2018,07,17,04,06,16.20
2018,07,17,04,07,16.20
2018,07,17,04,08,16.10
2018,07,17,04,09,16.10
2018,07,17,04,10,16.10
2018,07,17,04,11,16.10
2018,07,17,04,12,16.10
2018,07,17,04,13,16.00
2018,07,17,04,14,16.00
2018,07,17,04,15,16.00
2018,07,17,04,16,16.00
2018,07,17,04,17,16.00
2018,07,17,04,18,16.00
2018,07,17,04,19,16.00
2018,07,17,04,20,16.00
2018,07,17,04,21,15.90
2018,07,17,04,22,15.90
2018,07,17,04,23,15.90
2018,07,17,04,24,15.90
2018,07,17,04,25,15.80
2018,07,17,04,26,15.80
2018,07,17,04,27,15.80
2018,07,17,04,28,15.80
2018,07,17,04,29,15.70
2018,07,17,04,30,15.70
2018,07,17,04,31,15.70
2018,07,17,04,32,15.70
2018,07,17,04,33,15.60
2018,07,17,04,34,15.60
2018,07,17,04,35,15.60
2018,07,17,04,36,15.60
2018,07,17,04,37,15.50
2018,07,17,04,38,15.50
2018,07,17,04,39,15.50
2018,07,17,04,40,15.50
2018,07,17,04,41,15.40
2018,07,17,04,42,15.40
2018,07,17,04,43,15.40
2018,07,17,04,44,15.40
2018,07,17,04,45,15.40
2018,07,17,04,46,15.40
2018,07,17,04,47,15.40
2018,07,17,04,48,15.40
2018,07,17,04,49,15.40
2018,07,17,04,50,15.40
2018,07,17,04,51,15.40
2018,07,17,04,52,15.40
2018,07,17,04,53,15.30
2018,07,17,04,54,15.30
2018,07,17,04,55,15.40
2018,07,17,04,56,15.40
2018,07,17,04,57,15.40
2018,07,17,04,58,15.40
2018,07,17,04,59,15.40
2018,07,17,05,00,15.40
2018,07,17,05,01,15.40
2018,07,17,05,02,15.40
2018,07,17,05,03,15.40
2018,07,17,05,04,15.40
2018,07,17,05,05,15.40
2018,07,17,05,06,15.40
2018,07,17,05,07,15.40
2018,07,17,05,08,15.40
2018,07,17,05,09,15.30
2018,07,17,05,10,15.30
2018,07,17,05,11,15.30
2018,07,17,05,12,15.30
2018,07,17,05,13,15.20
2018,07,17,05,14,15.20
2018,07,17,05,15,15.10
2018,07,17,05,16,15.10
2018,07,17,05,17,15.10
2018,07,17,05,18,15.10
2018,07,17,05,19,15.00
2018,07,17,05,20,15.00
2018,07,17,05,21,14.90
2018,07,17,05,22,14.90
2018,07,17,05,23,14.90
2018,07,17,05,24,14.90
2018,07,17,05,25,14.80
2018,07,17,05,26,14.80
2018,07,17,05,27,14.80
2018,07,17,05,28,14.70
2018,07,17,05,29,14.70
2018,07,17,05,30,14.70
2018,07,17,05,31,14.70
2018,07,17,05,32,14.60
2018,07,17,05,33,14.60
2018,07,17,05,34,14.60
2018,07,17,05,35,14.60
2018,07,17,05,36,14.60
2018,07,17,05,37,14.60
2018,07,17,05,38,14.50
2018,07,17,05,39,14.50
2018,07,17,05,40,14.50
2018,07,17,05,41,14.50
2018,07,17,05,42,14.40
2018,07,17,05,43,14.40
2018,07,17,05,44,14.40
2018,07,17,05,45,14.40
2018,07,17,05,46,14.40
2018,07,17,05,47,14.40
2018,07,17,05,48,14.40
2018,07,17,05,49,14.40
2018,07,17,05,50,14.30
2018,07,17,05,51,14.40
2018,07,17,05,52,14.40
2018,07,17,05,53,14.40
2018,07,17,05,54,14.40
2018,07,17,05,55,14.40
2018,07,17,05,56,14.40
2018,07,17,05,57,14.40
2018,07,17,05,58,14.40
2018,07,17,05,59,14.40
2018,07,17,06,00,14.40
2018,07,17,06,01,14.40
2018,07,17,06,02,14.40
2018,07,17,06,03,14.40
2018,07,17,06,04,14.40
2018,07,17,06,05,14.40
2018,07,17,06,06,14.40
2018,07,17,06,07,14.50
2018,07,17,06,08,14.50
2018,07,17,06,09,14.50
2018,07,17,06,10,14.60
2018,07,17,06,11,14.60
2018,07,17,06,12,14.60
2018,07,17,06,13,14.70
2018,07,17,06,14,14.70
2018,07,17,06,15,14.70
2018,07,17,06,16,14.80
2018,07,17,06,17,14.80
2018,07,17,06,18,14.80
2018,07,17,06,19,14.90
2018,07,17,06,20,14.90
2018,07,17,06,21,15.00
2018,07,17,06,22,15.00
2018,07,17,06,23,15.10
2018,07,17,06,24,15.10
2018,07,17,06,25,15.10
2018,07,17,06,26,15.20
2018,07,17,06,27,15.20
2018,07,17,06,28,15.20
2018,07,17,06,29,15.30
2018,07,17,06,30,15.30
2018,07,17,06,31,15.30
2018,07,17,06,32,15.30
2018,07,17,06,33,15.30
2018,07,17,06,34,15.30
2018,07,17,06,35,15.30
2018,07,17,06,36,15.40
2018,07,17,06,37,15.40
2018,07,17,06,38,15.40
2018,07,17,06,39,15.40
2018,07,17,06,40,15.40
2018,07,17,06,41,15.40
2018,07,17,06,42,15.40
2018,07,17,06,43,15.40
2018,07,17,06,44,15.40
2018,07,17,06,45,15.50
2018,07,17,06,46,15.50
2018,07,17,06,47,15.50
2018,07,17,06,48,15.60
2018,07,17,06,49,15.60
2018,07,17,06,50,15.60
2018,07,17,06,51,15.60
2018,07,17,06,52,15.70
2018,07,17,06,53,15.70
2018,07,17,06,54,15.70
2018,07,17,06,55,15.80
2018,07,17,06,56,15.80
2018,07,17,06,57,15.90
2018,07,17,06,58,16.00
2018,07,17,06,59,16.00
2018,07,17,07,00,16.10
2018,07,17,07,01,16.10
2018,07,17,07,02,16.20
2018,07,17,07,03,16.20
2018,07,17,07,04,16.30
2018,07,17,07,05,16.30
2018,07,17,07,06,16.40
2018,07,17,07,07,16.40
2018,07,17,07,08,16.50
2018,07,17,07,09,16.50
2018,07,17,07,10,16.50
2018,07,17,07,11,16.60
2018,07,17,07,12,16.60
2018,07,17,07,13,16.70
2018,07,17,07,14,16.70
2018,07,17,07,15,16.70
2018,07,17,07,16,16.70
2018,07,17,07,17,16.80
2018,07,17,07,18,16.80
2018,07,17,07,19,16.80
2018,07,17,07,20,16.90
2018,07,17,07,21,16.90
2018,07,17,07,22,16.90
2018,07,17,07,23,17.00
2018,07,17,07,24,17.00
2018,07,17,07,25,17.10
2018,07,17,07,26,17.20
2018,07,17,07,27,17.30
2018,07,17,07,28,17.40
2018,07,17,07,29,17.40
2018,07,17,07,30,17.50
2018,07,17,07,31,17.60
2018,07,17,07,32,17.70
2018,07,17,07,33,17.70
2018,07,17,07,34,17.80
2018,07,17,07,35,17.90
2018,07,17,07,36,17.90
2018,07,17,07,37,18.00
2018,07,17,07,38,18.10
2018,07,17,07,39,18.20
2018,07,17,07,40,18.20
2018,07,17,07,41,18.30
2018,07,17,07,42,18.40
2018,07,17,07,43,18.40
2018,07,17,07,44,18.50
2018,07,17,07,45,18.60
2018,07,17,07,46,18.70
2018,07,17,07,47,18.80
2018,07,17,07,48,18.80
2018,07,17,07,49,18.90
2018,07,17,07,50,19.00
2018,07,17,07,51,19.00
2018,07,17,07,52,19.10
2018,07,17,07,53,19.20
2018,07,17,07,54,19.20
2018,07,17,07,55,19.20
2018,07,17,07,56,19.30
2018,07,17,07,57,19.30
2018,07,17,07,58,19.30
2018,07,17,07,59,19.30
2018,07,17,08,00,19.30
2018,07,17,08,01,19.30
2018,07,17,08,02,19.30
2018,07,17,08,03,19.30
2018,07,17,08,04,19.30
2018,07,17,08,05,19.30
2018,07,17,08,06,19.30
2018,07,17,08,07,19.40
2018,07,17,08,08,19.40
2018,07,17,08,09,19.50
2018,07,17,08,10,19.50
2018,07,17,08,11,19.60
2018,07,17,08,12,19.60
2018,07,17,08,13,19.60
2018,07,17,08,14,19.60
2018,07,17,08,15,19.50
2018,07,17,08,16,19.50
2018,07,17,08,17,19.40
2018,07,17,08,18,19.30
2018,07,17,08,19,19.20
2018,07,17,08,20,19.10
2018,07,17,08,21,19.00
2018,07,17,08,22,18.80
2018,07,17,08,23,18.80
2018,07,17,08,24,18.70
2018,07,17,08,25,18.70
2018,07,17,08,26,18.70
2018,07,17,08,27,18.60
2018,07,17,08,28,18.60
2018,07,17,08,29,18.60
2018,07,17,08,30,18.60
2018,07,17,08,31,18.50
2018,07,17,08,32,18.50
2018,07,17,08,33,18.50
2018,07,17,08,34,18.40
2018,07,17,08,35,18.40
2018,07,17,08,36,18.40
2018,07,17,08,37,18.40
2018,07,17,08,38,18.40
2018,07,17,08,39,18.40
2018,07,17,08,40,18.40
2018,07,17,08,41,18.50
2018,07,17,08,42,18.50
2018,07,17,08,43,18.50
2018,07,17,08,44,18.50
2018,07,17,08,45,18.50
2018,07,17,08,46,18.50
2018,07,17,08,47,18.50
2018,07,17,08,48,18.50
2018,07,17,08,49,18.50
2018,07,17,08,50,18.60
2018,07,17,08,51,18.60
2018,07,17,08,52,18.60
2018,07,17,08,53,18.70
2018,07,17,08,54,18.70
2018,07,17,08,55,18.80
2018,07,17,08,56,18.80
2018,07,17,08,57,18.80
2018,07,17,08,58,18.80
2018,07,17,08,59,18.90
2018,07,17,09,00,18.90
2018,07,17,09,01,18.90
2018,07,17,09,02,18.90
2018,07,17,09,03,19.00
2018,07,17,09,04,19.00
2018,07,17,09,05,19.10
2018,07,17,09,06,19.10
2018,07,17,09,07,19.10
2018,07,17,09,08,19.10
2018,07,17,09,09,19.20
2018,07,17,09,10,19.20
2018,07,17,09,11,19.20
2018,07,17,09,12,19.30
2018,07,17,09,13,19.30
2018,07,17,09,14,19.30
2018,07,17,09,15,19.30
2018,07,17,09,16,19.30
2018,07,17,09,17,19.40
2018,07,17,09,18,19.40
2018,07,17,09,19,19.50
2018,07,17,09,20,19.50
2018,07,17,09,21,19.60
2018,07,17,09,22,19.70
2018,07,17,09,23,19.70
2018,07,17,09,24,19.80
2018,07,17,09,25,19.80
2018,07,17,09,26,19.90
2018,07,17,09,27,20.00
2018,07,17,09,28,20.00
2018,07,17,09,29,20.00
2018,07,17,09,30,20.00
2018,07,17,09,31,20.00
2018,07,17,09,32,20.00
2018,07,17,09,33,20.00
2018,07,17,09,34,20.00
2018,07,17,09,35,20.00
2018,07,17,09,36,20.10
2018,07,17,09,37,20.10
2018,07,17,09,38,20.10
2018,07,17,09,39,20.20
2018,07,17,09,40,20.20
2018,07,17,09,41,20.20
2018,07,17,09,42,20.20
2018,07,17,09,43,20.20
2018,07,17,09,44,20.20
2018,07,17,09,45,20.20
2018,07,17,09,46,20.20
2018,07,17,09,47,20.20
2018,07,17,09,48,20.20
2018,07,17,09,49,20.20
2018,07,17,09,50,20.30
2018,07,17,09,51,20.30
2018,07,17,09,52,20.30
2018,07,17,09,53,20.30
2018,07,17,09,54,20.30
2018,07,17,09,55,20.30
2018,07,17,09,56,20.30
2018,07,17,09,57,20.40
2018,07,17,09,58,20.40
2018,07,17,09,59,20.50
2018,07,17,10,00,20.60
2018,07,17,10,01,20.70
2018,07,17,10,02,20.90
2018,07,17,10,03,21.10
2018,07,17,10,04,21.20
2018,07,17,10,05,21.40
2018,07,17,10,06,21.50
2018,07,17,10,07,21.60
2018,07,17,10,08,21.70
2018,07,17,10,09,21.80
2018,07,17,10,10,21.90
2018,07,17,10,11,22.00
2018,07,17,10,12,22.00
2018,07,17,10,13,22.10
2018,07,17,10,14,22.20
2018,07,17,10,15,22.20
2018,07,17,10,16,22.20
2018,07,17,10,17,22.20
2018,07,17,10,18,22.20
2018,07,17,10,19,22.30
2018,07,17,10,20,22.30
2018,07,17,10,21,22.30
2018,07,17,10,22,22.30
2018,07,17,10,23,22.30
2018,07,17,10,24,22.30
2018,07,17,10,25,22.30
2018,07,17,10,26,22.30
2018,07,17,10,27,22.40
2018,07,17,10,28,22.40
2018,07,17,10,29,22.50
2018,07,17,10,30,22.50
2018,07,17,10,31,22.50
2018,07,17,10,32,22.50
2018,07,17,10,33,22.50
2018,07,17,10,34,22.50
2018,07,17,10,35,22.40
2018,07,17,10,36,22.40
2018,07,17,10,37,22.50
2018,07,17,10,38,22.50
2018,07,17,10,39,22.60
2018,07,17,10,40,22.60
2018,07,17,10,41,22.60
2018,07,17,10,42,22.70
2018,07,17,10,43,22.70
2018,07,17,10,44,22.70
2018,07,17,10,45,22.80
2018,07,17,10,46,22.80
2018,07,17,10,47,22.80
2018,07,17,10,48,22.90
2018,07,17,10,49,22.90
2018,07,17,10,50,22.90
2018,07,17,10,51,22.90
2018,07,17,10,52,23.00
2018,07,17,10,53,23.10
2018,07,17,10,54,23.10
2018,07,17,10,55,23.10
2018,07,17,10,56,23.20
2018,07,17,10,57,23.20
2018,07,17,10,58,23.20
2018,07,17,10,59,23.20
2018,07,17,11,00,23.30
2018,07,17,11,01,23.30
2018,07,17,11,02,23.40
2018,07,17,11,03,23.50
2018,07,17,11,04,23.50
2018,07,17,11,05,23.60
2018,07,17,11,06,23.70
2018,07,17,11,07,23.70
2018,07,17,11,08,23.80
2018,07,17,11,09,23.90
2018,07,17,11,10,24.00
2018,07,17,11,11,24.00
2018,07,17,11,12,24.10
2018,07,17,11,13,24.10
2018,07,17,11,14,24.10
2018,07,17,11,15,24.10
2018,07,17,11,16,24.20
2018,07,17,11,17,24.20
2018,07,17,11,18,24.20
2018,07,17,11,19,24.20
2018,07,17,11,20,24.20
2018,07,17,11,21,24.20
2018,07,17,11,22,24.30
2018,07,17,11,23,24.30
2018,07,17,11,24,24.40
2018,07,17,11,25,24.40
2018,07,17,11,26,24.50
2018,07,17,11,27,24.50
2018,07,17,11,28,24.50
2018,07,17,11,29,24.50
2018,07,17,11,30,24.50
2018,07,17,11,31,24.40
2018,07,17,11,32,24.40
2018,07,17,11,33,24.40
2018,07,17,11,34,24.40
2018,07,17,11,35,24.40
2018,07,17,11,36,24.30
2018,07,17,11,37,24.30
2018,07,17,11,38,24.30
2018,07,17,11,39,24.30
2018,07,17,11,40,24.30
2018,07,17,11,41,24.30
2018,07,17,11,42,24.40
2018,07,17,11,43,24.50
2018,07,17,11,44,24.50
2018,07,17,11,45,24.60
2018,07,17,11,46,24.70
2018,07,17,11,47,24.70
2018,07,17,11,48,24.80
2018,07,17,11,49,24.80
2018,07,17,11,50,24.80
2018,07,17,11,51,24.70
2018,07,17,11,52,24.70
2018,07,17,11,53,24.70
2018,07,17,11,54,24.60
2018,07,17,11,55,24.60
2018,07,17,11,56,24.60
2018,07,17,11,57,24.50
2018,07,17,11,58,24.40
2018,07,17,11,59,24.40
2018,07,17,12,00,24.30
2018,07,17,12,01,24.30
2018,07,17,12,02,24.30
2018,07,17,12,03,24.10
2018,07,17,12,04,23.90
2018,07,17,12,05,23.80
2018,07,17,12,06,23.60
2018,07,17,12,07,23.60
2018,07,17,12,08,23.50
2018,07,17,12,09,23.40
2018,07,17,12,10,23.30
2018,07,17,12,11,23.10
2018,07,17,12,12,22.90
2018,07,17,12,13,22.70
2018,07,17,12,14,22.60
2018,07,17,12,15,22.50
2018,07,17,12,16,22.30
2018,07,17,12,17,22.20
2018,07,17,12,18,22.10
2018,07,17,12,19,22.00
2018,07,17,12,20,21.90
2018,07,17,12,21,21.90
2018,07,17,12,22,21.90
2018,07,17,12,23,21.90
2018,07,17,12,24,21.90
2018,07,17,12,25,22.00
2018,07,17,12,26,22.10
2018,07,17,12,27,22.20
2018,07,17,12,28,22.30
2018,07,17,12,29,22.40
2018,07,17,12,30,22.50
2018,07,17,12,31,22.60
2018,07,17,12,32,22.70
2018,07,17,12,33,22.90
2018,07,17,12,34,23.00
2018,07,17,12,35,23.10
2018,07,17,12,36,23.20
2018,07,17,12,37,23.20
2018,07,17,12,38,23.20
2018,07,17,12,39,23.20
2018,07,17,12,40,23.20
2018,07,17,12,41,23.20
2018,07,17,12,42,23.20
2018,07,17,12,43,23.30
2018,07,17,12,44,23.40
2018,07,17,12,45,23.40
2018,07,17,12,46,23.40
2018,07,17,12,47,23.40
2018,07,17,12,48,23.30
2018,07,17,12,49,23.40
2018,07,17,12,50,23.50
2018,07,17,12,51,23.60
2018,07,17,12,52,23.70
2018,07,17,12,53,23.70
2018,07,17,12,54,23.80
2018,07,17,12,55,23.80
2018,07,17,12,56,23.70
2018,07,17,12,57,23.70
2018,07,17,12,58,23.70
2018,07,17,12,59,23.70
2018,07,17,13,00,23.70
2018,07,17,13,01,23.80
2018,07,17,13,02,23.80
2018,07,17,13,03,23.90
2018,07,17,13,04,24.00
2018,07,17,13,05,24.00
2018,07,17,13,06,24.10
2018,07,17,13,07,24.20
2018,07,17,13,08,24.20
2018,07,17,13,09,24.20
2018,07,17,13,10,24.30
2018,07,17,13,11,24.30
2018,07,17,13,12,24.30
2018,07,17,13,13,24.30
2018,07,17,13,14,24.40
2018,07,17,13,15,24.40
2018,07,17,13,16,24.40
2018,07,17,13,17,24.30
2018,07,17,13,18,24.40
2018,07,17,13,19,24.40
2018,07,17,13,20,24.50
2018,07,17,13,21,24.50
2018,07,17,13,22,24.60
2018,07,17,13,23,24.70
2018,07,17,13,24,24.80
2018,07,17,13,25,24.90
2018,07,17,13,26,24.90
2018,07,17,13,27,25.00
2018,07,17,13,28,25.10
2018,07,17,13,29,25.20
2018,07,17,13,30,25.30
2018,07,17,13,31,25.40
2018,07,17,13,32,25.50
2018,07,17,13,33,25.60
2018,07,17,13,34,25.70
2018,07,17,13,35,25.80
2018,07,17,13,36,25.90
2018,07,17,13,37,26.00
2018,07,17,13,38,26.10
2018,07,17,13,39,26.20
2018,07,17,13,40,26.20
2018,07,17,13,41,26.20
2018,07,17,13,42,26.20
2018,07,17,13,43,26.20
2018,07,17,13,44,26.20
2018,07,17,13,45,26.10
2018,07,17,13,46,25.90
2018,07,17,13,47,25.90
2018,07,17,13,48,25.90
2018,07,17,13,49,25.80
2018,07,17,13,50,25.80
2018,07,17,13,51,25.90
2018,07,17,13,52,25.90
2018,07,17,13,53,26.00
2018,07,17,13,54,26.10
2018,07,17,13,55,26.10
2018,07,17,13,56,26.00
2018,07,17,13,57,26.00
2018,07,17,13,58,26.00
2018,07,17,13,59,26.00
2018,07,17,14,00,26.10
2018,07,17,14,01,26.20
2018,07,17,14,02,26.20
2018,07,17,14,03,26.30
2018,07,17,14,04,26.30
2018,07,17,14,05,26.30
2018,07,17,14,06,26.30
2018,07,17,14,07,26.30
2018,07,17,14,08,26.40
2018,07,17,14,09,26.40
2018,07,17,14,10,26.40
2018,07,17,14,11,26.40
2018,07,17,14,12,26.40
2018,07,17,14,13,26.30
2018,07,17,14,14,26.40
2018,07,17,14,15,26.40
2018,07,17,14,16,26.40
2018,07,17,14,17,26.40
2018,07,17,14,18,26.30
2018,07,17,14,19,26.20
2018,07,17,14,20,26.10
2018,07,17,14,21,26.10
2018,07,17,14,22,26.10
2018,07,17,14,23,26.10
2018,07,17,14,24,26.20
2018,07,17,14,25,26.20
2018,07,17,14,26,26.30
2018,07,17,14,27,26.30
2018,07,17,14,28,26.30
2018,07,17,14,29,26.30
2018,07,17,14,30,26.30
2018,07,17,14,31,26.30
2018,07,17,14,32,26.30
2018,07,17,14,33,26.30
2018,07,17,14,34,26.40
2018,07,17,14,35,26.40
2018,07,17,14,36,26.40
2018,07,17,14,37,26.40
2018,07,17,14,38,26.40
2018,07,17,14,39,26.40
2018,07,17,14,40,26.40
2018,07,17,14,41,26.40
2018,07,17,14,42,26.40
2018,07,17,14,43,26.50
2018,07,17,14,44,26.60
2018,07,17,14,45,26.70
2018,07,17,14,46,26.70
2018,07,17,14,47,26.80
2018,07,17,14,48,26.80
2018,07,17,14,49,26.80
2018,07,17,14,50,26.70
2018,07,17,14,51,26.60
2018,07,17,14,52,26.50
2018,07,17,14,53,26.40
2018,07,17,14,54,26.30
2018,07,17,14,55,26.20
2018,07,17,14,56,26.10
2018,07,17,14,57,26.10
2018,07,17,14,58,26.10
2018,07,17,14,59,26.10
2018,07,17,15,00,26.10
2018,07,17,15,01,26.10
2018,07,17,15,02,26.10
2018,07,17,15,03,26.20
2018,07,17,15,04,26.20
2018,07,17,15,05,26.20
2018,07,17,15,06,26.20
2018,07,17,15,07,26.30
2018,07,17,15,08,26.40
2018,07,17,15,09,26.50
2018,07,17,15,10,26.50
2018,07,17,15,11,26.60
2018,07,17,15,12,26.70
2018,07,17,15,13,26.80
2018,07,17,15,14,26.80
2018,07,17,15,15,26.90
2018,07,17,15,16,27.00
2018,07,17,15,17,27.10
2018,07,17,15,18,27.20
2018,07,17,15,19,27.20
2018,07,17,15,20,27.10
2018,07,17,15,21,27.10
2018,07,17,15,22,27.10
2018,07,17,15,23,27.10
2018,07,17,15,24,27.00
2018,07,17,15,25,26.90
2018,07,17,15,26,26.80
2018,07,17,15,27,26.70
2018,07,17,15,28,26.70
2018,07,17,15,29,26.70
2018,07,17,15,30,26.60
2018,07,17,15,31,26.60
2018,07,17,15,32,26.50
2018,07,17,15,33,26.50
2018,07,17,15,34,26.50
2018,07,17,15,35,26.40
2018,07,17,15,36,26.30
2018,07,17,15,37,26.30
2018,07,17,15,38,26.30
2018,07,17,15,39,26.20
2018,07,17,15,40,26.10
2018,07,17,15,41,26.10
2018,07,17,15,42,26.10
2018,07,17,15,43,26.00
2018,07,17,15,44,26.00
2018,07,17,15,45,25.90
2018,07,17,15,46,25.90
2018,07,17,15,47,26.00
2018,07,17,15,48,26.00
2018,07,17,15,49,26.10
2018,07,17,15,50,26.20
2018,07,17,15,51,26.20
2018,07,17,15,52,26.20
2018,07,17,15,53,26.30
2018,07,17,15,54,26.30
2018,07,17,15,55,26.30
2018,07,17,15,56,26.50
2018,07,17,15,57,26.60
2018,07,17,15,58,26.80
2018,07,17,15,59,26.90
2018,07,17,16,00,27.00
2018,07,17,16,01,27.20
2018,07,17,16,02,27.30
2018,07,17,16,03,27.40
2018,07,17,16,04,27.50
2018,07,17,16,05,27.50
2018,07,17,16,06,27.50
2018,07,17,16,07,27.60
2018,07,17,16,08,27.60
2018,07,17,16,09,27.60
2018,07,17,16,10,27.60
2018,07,17,16,11,27.70
2018,07,17,16,12,27.80
2018,07,17,16,13,27.90
2018,07,17,16,14,28.00
2018,07,17,16,15,28.10
2018,07,17,16,16,28.10
2018,07,17,16,17,28.10
2018,07,17,16,18,28.00
2018,07,17,16,19,28.10
2018,07,17,16,20,28.10
2018,07,17,16,21,28.00
2018,07,17,16,22,28.00
2018,07,17,16,23,28.00
2018,07,17,16,24,27.90
2018,07,17,16,25,27.90
2018,07,17,16,26,27.90
2018,07,17,16,27,27.90
2018,07,17,16,28,27.90
2018,07,17,16,29,27.90
2018,07,17,16,30,27.90
2018,07,17,16,31,27.90
2018,07,17,16,32,27.80
2018,07,17,16,33,27.70
2018,07,17,16,34,27.70
2018,07,17,16,35,27.70
2018,07,17,16,36,27.70
2018,07,17,16,37,27.70
2018,07,17,16,38,27.70
2018,07,17,16,39,27.70
2018,07,17,16,40,27.80
2018,07,17,16,41,27.80
2018,07,17,16,42,27.90
2018,07,17,16,43,28.00
2018,07,17,16,44,28.00
2018,07,17,16,45,28.00
2018,07,17,16,46,28.00
2018,07,17,16,47,28.00
2018,07,17,16,48,28.00
2018,07,17,16,49,27.90
2018,07,17,16,50,28.00
2018,07,17,16,51,28.00
2018,07,17,16,52,28.00
2018,07,17,16,53,27.90
2018,07,17,16,54,27.90
2018,07,17,16,55,27.90
2018,07,17,16,56,28.00
2018,07,17,16,57,27.90
2018,07,17,16,58,27.90
2018,07,17,16,59,27.80
2018,07,17,17,00,27.70
2018,07,17,17,01,27.60
2018,07,17,17,02,27.60
2018,07,17,17,03,27.50
2018,07,17,17,04,27.50
2018,07,17,17,05,27.50
2018,07,17,17,06,27.50
2018,07,17,17,07,27.40
2018,07,17,17,08,27.40
2018,07,17,17,09,27.30
2018,07,17,17,10,27.30
2018,07,17,17,11,27.30
2018,07,17,17,12,27.40
2018,07,17,17,13,27.40
2018,07,17,17,14,27.40
2018,07,17,17,15,27.40
2018,07,17,17,16,27.40
2018,07,17,17,17,27.40
2018,07,17,17,18,27.40
2018,07,17,17,19,27.30